Погода в Арске

Погода в Арске : погода сейчас, прогноз погоды и архив. Всё, что Вы хотите узнать о погоде в Арске!

Хотите узнать прогноз погоды в Арске? Тогда Вам сюда: Погода в Арске

Поиск расширенной информации на нашем сайте:

Другие новости

Новости СМИ2

Главная страница сайта

Новости сайта

03.07.2017

Напоминаем, что на нашем специализированном сайте Метеоцентр.Азия вы можете получить высокодетализированные автоматические прогнозы погоды по пунктам России, СНГ и мира в авиационном формате (включающие направление и скорость ветра, видимость, явления погоды, количество и форму облачности, нижнюю и верхнюю границу облачности).


Погода в Арске - сегодня

Время (UTC), дата Ветер
(°,м/с) 
Видим.   Явления Облачность Т
(°С)
Тd
(°С)
f(%) Тe
(°С)
Pmin
(гПа)
dP
(гПа)
Po
(мм)
O2
(г/м3)
Тmin Tmax R s Состояние
почвы
12 23.05.18 220 (ЮЗ) 20000 м    9/9 600 м 
[Sc]
+23 +4.7 30 +23  1023.8  -1.5  755  280           
18 23.05.18 210 (ЮЗ) 20000 м    6/6 600 м 
[Sc]
+18.7 +8.5 51 +20  1020.9  -1.3  752  282           
21 23.05.18 210 (ЮЗ) 20000 м    6/0 средняя 
[Ac trans]
+16.6 +7.3 54 +17  1019.5  -1.5  751  284           
00 24.05.18 180 (Ю) 20000 м    5/5 600 м 
[Sc]
+14.6 +7.2 61 +16  1018.7  -0.9  750  286           
06 24.05.18 280 (З) 20000 м    8/0 средняя 
[Ac trans]
+20.5 +8.7 47 +21  1018.8  751  280           
09 24.05.18 280 (З) 20000 м    9/5 1000 м средняя 
[Cu hum|Ac trans]
+21.9 +7.4 39 +22  1018.3  -0.4  750  279           
12 24.05.18 290 (З) 20000 м    8/5 600 м средняя 
[Sc|Ac trans]
+22.8 +6.2 34 +23  1017.1  -1.1  750  278           
18 24.05.18 030 (СВ) 20000 м    8/8 600 м 
[Sc]
+18.5 +9.8 57 +20  1016.5  0.3  749  281           
21 24.05.18 030 (СВ) 2{10}  20000 м    5/3 600 м средняя 
[Sc|Ac trans]
+14 +10.9 82 +17  1016.4  -0.3  749  285           
00 25.05.18 020 (С) 20000 м    9/9 600 м 
[Sc]
+12 +8.1 77 +12  1016.4  -0.1  749  288           
06 25.05.18 360 (С) 7-11{11}  20000 м    8/0 средняя, верхняя 
[Ac trans|Cc]
+11.6 +3.6 58 +10  1018.5  1.2  750  289           
12 25.05.18 350 (С) 6-12{13}  20000 м    5/5 1000 м 
[Cu med, cong]
+12.4 -5.3 29 +11  1020.7  752  290           
18 25.05.18 360 (С) 4{11}  20000 м    3/3 600 м 
[Sc]
+7.9 -1.9 50 +7  1024.1  1.9  754  295           
21 25.05.18 360 (С) 20000 м    ясно 
+5.5 -3.2 53 +3  1025.5  1.2  755  299           
00 26.05.18 360 (С) 20000 м    10/0 средняя 
[Ac und]
+3.2 -1.6 71 +1  1027.4  1.7  756  301           
06 26.05.18 010 (С) 5-12{12}  20000 м    ясно 
+8.7 -6.8 33 +7  1030.2  758  297           
09 26.05.18 360 (С) 5-11{12}  20000 м    ясно 
+12.4 -6.1 27 +12  1029.6  -0.3  758  293           
12 26.05.18 350 (С) 5{12}  20000 м    ясно 
+14.3 -5.2 25 +14  1028.7  -0.8  758  291           
18 26.05.18 300 (СЗ) 20000 м    ясно 
+10.8 -2.1 40 +12  1028.1  0.4  757  294           
21 26.05.18 210 (ЮЗ) 20000 м    ясно 
+6.8 -1.1 57 +7  1027.9  -0.5  757  298           
00 27.05.18 220 (ЮЗ) 20000 м    ясно 
+6 +0.8 69 +6  1026.7  -1.2  756  298           
06 27.05.18 240 (ЮЗ) 5-10{11}  20000 м    3/0 верхняя 
[Ci fib]
+17.5 +4.1 41 +18  1021.4  -2.6  752  284           
12 27.05.18 250 (З) 8-14{15}  20000 м    9/9 600 м 
[Sc]
+20.7 +4 33 +21  1015.5  -3  748  280           
18 27.05.18 320 (СЗ) 2{13}  4000 м  слаб. ливневой дождь  9/9 600 м кучево-дожд. 
[Cb cap]
+11.4 +9.7 89 +13  1013.4  0.4  746  287           
21 27.05.18 350 (С) 4000 м  слаб. ливневой дождь  10/10 600 м кучево-дожд. 
[Cb cap]
+8.6 +5.9 83 +9  1013.7  -0.1  746  291           
Время (UTC), дата Ветер
(°,м/с) 
Видим.   Явления Облачность Т
(°С)
Тd
(°С)
f(%) Тe
(°С)
Pmin
(гПа)
dP
(гПа)
Po
(мм)
O2
(г/м3)
Тmin Tmax R s Состояние
почвы

Для получения пояснительной информации подведите курсор к названию столбца.

ПОГОДА в Арске - архив

Всё, что Вы хотите узнать о погоде в Арске - удобно и подробно!

Выберите нужную дату (начиная с 1 января 2015* года) и нажмите кнопку "Найти".
Будут отображены архивные сводки погоды по пункту Арск, начиная с указанной даты.


Отображать данные в формате CSV (для использования в таблицах Excel)


Внимание! Наш архив погоды предназначен исключительно для личного некоммерческого использования в познавательных целях. Если Вам необходимы официальные справки о состоянии погоды (для производственных, юридических, коммерческих и т.п. целей), обращайтесь в органы Росгидромета.

*Примечание: данная дата относится к архиву по метеостанциям СССР (Россия, СНГ, Балтия).
Архив по метеостанциям Зарубежной Европы и Азии (кроме Китая) хранится 10 дней, по другим регионам земного шара (Китай, Африка, Америка, Австралия, Океания) - 1 день.

Арск - район местоположения метеостанции


Название, широта, долгота, высота метеостанции:
Арск 56.1°ш. 49.9°д. 153 м над ур. моря []

Дополнительная информация

В oтличие oт бoльшинства пoгoдных сайтoв мы публикуем пoдрoбную метеoинфoрмацию в детальнoм прoфессиoнальнoм фoрмате.

Характеристики температуры и влажнoсти вoздуха измеряются на высoте 2 м в тени вдали oт зданий и деревьев.
Скoрoсть ветра измеряется на высoте 10 м (на урoвне рoста челoвека скoрoсть ветра ниже в 1.5-2 раза). Если метеoстанция нахoдится в гoрoде или в лесу, тo скoрoсть ветра занижена на 2-4 м/с пo сравнению с oткрытым местoм. Скoрoсть ветра над акватoриями крупных рек и oзёр, а также на вершинах хoлмoв на 2-5 м/с выше, чем в oбычных услoвиях.
Атмoсфернoе давление в разных тoчках местнoсти мoжет значительнo oтличаться oт давления на метеoстанции, в зависимoсти oт услoвий рельефа (при пoдъёме на 10 м давление пoнижается примернo на 1 мм рт.ст.).